Regional Weather Roundup
Issued by NWS

Home | Current Version | Previous Version | Text Only | Print | Product List | Glossary Off
Versions: 1 2 3 4 5 6 7 8 9 10 11 12 13 14 15 16 17 18 19 20 21 22 23 24 25 26 27 28 29 30 31 32 33 34 35 36 37 38 39 40 41 42 43 44 45 46 47 48 49 50

583
ASUS43 KMPX 030101
RWRMN
WEATHER ROUNDUP FOR MINNESOTA
NATIONAL WEATHER SERVICE TWIN CITIES/CHANHASSEN MN
800 PM CDT MON MAY 02 2016


NOTE: "FAIR" INDICATES FEW OR NO CLOUDS BELOW 12,000 FEET WITH NO
SIGNIFICANT WEATHER AND/OR OBSTRUCTIONS TO VISIBILITY. N/A MEANS
CURRENT SKY AND/OR WEATHER CONDITIONS ARE NOT AVAILABLE.

MNZ060>063-068>070-030200-
   Twin Cities Metro

CITY           SKY/WX    TMP DP  RH WIND       PRES   REMARKS
TWIN CITIES    PTCLDY    64  27  24 W7        30.00S
ST PAUL        MOCLDY    62  32  32 SW3       30.00S
CRYSTAL        CLEAR     63  30  28 W5        29.99S
EDEN PRAIRIE   CLEAR     64  28  25 NW3       29.99S
SOUTH ST PAUL  MOCLDY    64  29  27 SW3       30.00R
LAKE ELMO      FAIR      61  34  36 CALM      30.01S
$$
MNZ001>005-007-008-013>017-022>024-027-028-030200-
   Northwest Minnesota

CITY           SKY/WX    TMP DP  RH WIND       PRES   REMARKS
BEMIDJI        CLEAR     63  27  25 W3        29.95S
HALLOCK        PTCLDY    68  25  19 W5        29.93S
ROSEAU         CLEAR     66  28  24 CALM      29.94S
WARROAD        PTCLDY    57  41  54 SE3       29.94F
THIEF RVR FALL CLEAR     66  25  20 CALM      29.96S
CROOKSTON      CLEAR     66  28  24 CALM      29.95S
FOSSTON        MOCLDY    64  27  24 W7        29.96S
DETROIT LAKES  CLEAR     63  30  29 SW3       29.99S
MOORHEAD       CLEAR     66  32  28 W8        29.97S
PARK RAPIDS    CLEAR     62  31  31 SW8       29.96S
MAHNOMEN       FAIR      66  28  23 SW7       29.96S
$$
MNZ006-009>011-018-025>026-030200-
   North Central Minnesota

CITY           SKY/WX    TMP DP  RH WIND       PRES   REMARKS
BAUDETTE       CLEAR     61  29  29 N3        29.94F
FLAG ISLAND    MOCLDY    59  30  33 SE3       29.92S
INTL FALLS     CLEAR     62  26  25 NW6       29.93S
WASKISH        CLEAR     63  30  29 CALM      29.94F
BIG FORK       CLEAR     61  28  29 SW6       29.95S
LONGVILLE      CLEAR     63  28  27 CALM      29.96S
GRAND RAPIDS   CLEAR     63  27  25 NW7       29.98R
CRANE LAKE     PTCLDY    59  30  33 CALM      29.95S
ORR            PTCLDY    61  27  27 CALM      29.92S
COOK           CLEAR     63  28  27 CALM      29.95S
WALKER         FAIR      62  31  31 CALM      29.95S
$$
MNZ012-019>021-037-030200-
   Northeast Minnesota

CITY           SKY/WX    TMP DP  RH WIND       PRES   REMARKS
DULUTH         PTCLDY    59  30  33 S5        29.97S
ELY            PTCLDY    63  27  25 W6        29.94F
HIBBING        PTCLDY    61  28  28 VRB3      29.95S
EVELETH        CLEAR     59  30  33 SW5       29.97S
DULUTH HARBOR  CLEAR     41  37  87 NE5       29.99R
TWO HARBORS    CLEAR     55  36  47 CALM      29.96S
SILVER BAY     CLEAR     52  34  50 CALM      29.97S
GRAND MARAIS     N/A     43  34  70 W3        29.99F
G MARAIS ARPRT CLEAR     46  27  46 S5        30.00S
$$
MNZ029>031-032-039>041-046>048-054>057-064-030200-
   West Central Minnesota

CITY           SKY/WX    TMP DP  RH WIND       PRES   REMARKS
FERGUS FALLS   CLEAR     63  34  34 S5        29.95S
WHEATON        CLEAR     66  34  30 CALM      29.99R
MORRIS         PTCLDY    64  32  29 CALM      29.98R
ALEXANDRIA     PTCLDY    60  30  32 S7        30.00R
ELBOW LAKE     FAIR      63  31  29 CALM      29.99S
WADENA         CLEAR     63  28  27 W3        29.98S
GLENWOOD       MOCLDY    63  30  29 SE3       30.00R
APPLETON       CLEAR     66  27  22 CALM      29.98R
BENSON         CLEAR     61  28  29 CALM      29.99R
ORTONVILLE     CLEAR     64  30  27 CALM      29.98R
MADISON        CLEAR     64  28  25 SW5       29.98S
WILLMAR        MOCLDY    64  37  36 CALM      30.00S
$$
MNZ033>034-036-042>043-049>051-058-059-030200-
   Central Minnesota

CITY           SKY/WX    TMP DP  RH WIND       PRES   REMARKS
ST CLOUD       CLOUDY    60  36  40 CALM      29.99S
SAUK CENTRE    CLOUDY    61  31  32 CALM      29.99S
PAYNESVILLE    CLOUDY    63  29  27 CALM      30.00R
AITKIN         CLEAR     63  25  23 CALM      29.96S
PINE RIVER     CLEAR     63  36  36 S5        30.00S
BRAINERD       CLEAR     59  31  34 S6        29.98S
STAPLES        CLEAR     61  28  29 SW3       29.98S
LONG PRAIRIE   MOCLDY    63  30  29 CALM      30.00S
LITTLE FALLS   CLOUDY    61  30  31 CALM      29.99S
LITCHFIELD     CLOUDY    63  34  34 CALM      30.00S
BUFFALO        CLEAR     62  31  31 CALM      30.01S
MAPLE LAKE     PTCLDY    62  35  35 S3        30.01S
HUTCHINSON     PTCLDY    63  35  35 CALM      30.01S
$$
MNZ037-044-045-052-053-030200-
   East Central Minnesota

CITY           SKY/WX    TMP DP  RH WIND       PRES   REMARKS
PRINCETON        N/A     63  34  34 CALM      30.00S
MORA           PTCLDY    59  32  36 CALM      30.01S
CAMBRIDGE      PTCLDY    66  41  39 CALM      29.98S
RUSH CITY      CLEAR     61  32  34 CALM      29.99F
MOOSE LAKE     CLEAR     63  32  31 S9        29.96S
HINCKLEY       FAIR      57  37  47 SW5       29.98F
CLOQUET        CLEAR     61  27  27 W3        29.97S
MCGREGOR       CLEAR     61  32  33 SW3       29.98S
$$
MNZ071>073-080-081-089-090-097-098-030200-
   Southwest Minnesota

CITY           SKY/WX    TMP DP  RH WIND       PRES   REMARKS
MONTEVIDEO     PTCLDY    63  30  29 CALM      30.00S
GRANITE FALLS  CLEAR     66  33  29 SW5       30.00S
CANBY          CLEAR     66  33  29 CALM      29.99S
MARSHALL       CLEAR     63  36  36 SW8       29.99S
REDWOOD FALLS  CLEAR     62  33  33 S6        29.99S
OLIVIA         CLEAR     61  32  33 CALM      29.99S
PIPESTONE      CLEAR     57  41  54 SW5       30.01S
WINDOM         CLEAR     61  34  36 CALM      30.01S
WORTHINGTON      N/A     60  39  45 CALM      30.02S
JACKSON        CLEAR     59  34  38 S5        30.03S
TRACY          CLEAR     60  38  44 S5        30.00S
SLAYTON        CLOUDY    62  33  33 S5        30.02R
$$
MNZ065>067-074>077-082>085-091>093-030200-
   South Central Minnesota

CITY           SKY/WX    TMP DP  RH WIND       PRES   REMARKS
MANKATO        CLEAR     61  34  36 SW7       30.01S
NEW ULM        CLEAR     61  36  39 S5        30.00S
ST JAMES       CLEAR     55  37  50 S6        30.02S
FAIRMONT       CLEAR     61  37  41 SW5       30.02S
GLENCOE        CLEAR     64  35  34 CALM      30.00R
FARIBAULT      CLEAR     61  32  33 SW2       30.01S
OWATONNA       PTCLDY    61  36  39 W3        30.01S
WASECA         CLEAR     59  36  41 W6        30.03S
$$
MNZ078>079-086>088-094>096-030200-
   Southeast Minnesota

CITY           SKY/WX    TMP DP  RH WIND       PRES   REMARKS
ROCHESTER      CLOUDY    58  43  57 SW9       30.02F
RED WING       PTCLDY    61  37  41 CALM      29.99S
STANTON        PTCLDY    62  31  32 W3        29.99S
DODGE CENTER   CLEAR     55  37  50 SW3       30.02S
WINONA         CLEAR     61  36  39 CALM      30.01S
AUSTIN         CLEAR     55  39  54 S5        30.02S
PRESTON        PTCLDY    56  39  52 S5        30.03S
$$
ABBREVIATIONS USED IN REMARKS
   TC - TEMPERATURES IN CELSIUS
  WCI - WIND CHILL INDEX
   HX - HEAT INDEX
  VSB - VISIBILITY
$$




USA.gov is the U.S. government's official web portal to all federal, state and local government web resources and services.